User: anonymous   Login
Location: Unspecified
(0.0000°N, 0.0000°E)
Time: 09:28:40
(UTC+00:00)
Language:

SN 39 - Orbit

View from above orbital plane
View from above orbital plane
View from above satellite
View from above satellite

Ground track
Ground track

The orbit data is extracted from the following two-line orbital elements,

1   671U 63038C   17295.69564892 +.00000025 +00000-0 +26687-4 0  9997
2   671 090.0710 325.9942 0041608 042.4371 097.5093 13.44787333650475
Epoch (UTC): 22 October 2017 16:41:44
Eccentricity: 0.0041608
inclination: 90.0710°
perigee height: 1060 km
apogee height: 1122 km
right ascension of ascending node: 325.9942°
argument of perigee: 42.4371°
revolutions per day: 13.44787333
mean anomaly at epoch: 97.5093°
orbit number at epoch: 65047

The dashed part of the orbit path shows where the satellite is in the earth's shadow,  

DLR